Home > Weather > Fortaleza > Past weeks

Flag for Brazil Past Weather in Fortaleza, Ceará, Brazil — Yesterday and Last 2 Weeks

Now
84 °F

Sunny.


Feels Like: 88 °F
Forecast: 77 / 86 °F
Wind: 20 mph from East

Location: Fortaleza Aeropor-To

Current Time: Jul 28, 2016 at 3:24:59 PM

Latest Report: Jul 28, 2016 at 3:00 PM


Visibility: 10 mi

Pressure: 29.86 "Hg

Humidity: 62%

Dew Point: 70 °F

Location of FortalezaLocation

Past Weather in Fortaleza — Graph

°F

Fortaleza Temperature Yesterday

Maximum temperature yesterday: 88 °F (at 11:00 AM)
Minimum temperature yesterday: 73 °F (at 5:00 AM)
Average temperature yesterday: 80 °F

High & Low Weather Summary for the Past Weeks

 TemperatureHumidityPressure
High90 °F (Jul 15, 11:00 AM)94% (Jul 19, 6:00 AM)30.04 "Hg (Jul 19, 6:00 AM)
Low73 °F (Jul 26, 6:00 AM)36% (Jul 24, 11:00 AM)29.80 "Hg (Jul 15, 2:00 PM)
Average81 °F70%29.93 "Hg
* Reported Jul 13 2:00 PM — Jul 28 2:00 PM, Fortaleza, Weather by CustomWeather, © 2016

Note: Actual official high and low records may vary slightly from our data, if they occured in-between our weather recording intervals... More about our weather records

Advertising

Fortaleza Weather History for the Previous 24 Hours

Scroll right to see more
 ConditionsComfort  
Time TempWeatherWind HumidityBarometerVisibility
2:00 PM
Thu, Jul 28
84 °FSunny.20 mph62%29.86 "Hg10 mi
1:00 PM86 °FPassing clouds.21 mph55%29.89 "HgN/A
12:00 PM84 °FPassing clouds.20 mph55%29.92 "HgN/A
11:00 AM86 °FPassing clouds.22 mph46%29.92 "HgN/A
10:00 AM86 °FPassing clouds.17 mph49%29.95 "HgN/A
9:00 AM82 °FSunny.9 mph58%29.95 "Hg10 mi
8:00 AM79 °FSunny.15 mph61%29.95 "Hg10 mi
7:00 AM77 °FSunny.12 mph69%29.95 "Hg10 mi
6:00 AM75 °FSunny.8 mph78%29.92 "Hg10 mi
5:00 AM75 °FPassing clouds.6 mph83%29.92 "HgN/A
4:00 AM77 °FPassing clouds.7 mph79%29.92 "HgN/A
3:00 AM79 °FPassing clouds.13 mph74%29.92 "HgN/A
2:00 AM79 °FPassing clouds.14 mph74%29.92 "HgN/A
1:00 AM79 °FPassing clouds.14 mph79%29.92 "HgN/A
12:00 AM79 °FPassing clouds.12 mph84%29.95 "HgN/A
11:00 PM
Wed, Jul 27
79 °FPassing clouds.9 mph79%29.95 "HgN/A
10:00 PM79 °FPassing clouds.10 mph79%29.95 "HgN/A
9:00 PM79 °FClear.9 mph79%29.95 "Hg10 mi
8:00 PM79 °FClear.7 mph79%29.95 "Hg10 mi
7:00 PM79 °FClear.8 mph74%29.92 "Hg10 mi
6:00 PM81 °FClear.10 mph66%29.89 "Hg10 mi
5:00 PM81 °FSunny.10 mph62%29.89 "Hg10 mi
4:00 PM82 °FSunny.12 mph62%29.89 "Hg10 mi
3:00 PM84 °FSunny.13 mph58%29.86 "Hg10 mi
Weather by CustomWeather, © 2016

See weather overviewHow to use our weather pages